Tracking 23758 objects as of 27-Oct-2021
HD Live streaming from Space Station
objects crossing your sky now

INTELSAT 4-F7

Track INTELSAT 4-F7 now!
INTELSAT 4-F7 is classified as:


NORAD ID: 6796
Int'l Code: 1973-058A
Perigee: 36,085.3 km
Apogee: 36,139.9 km
Inclination: 11.1 °
Period: 1,452.4 minutes
Semi major axis: 42483 km
RCS: 1.5964 m2 (large)
Launch date: August 23, 1973
Source: International Telecommunications Satellite Organization (ITSO)
Launch site: AIR FORCE EASTERN TEST RANGE (AFETR)
aabbcc
Your satellite tracking list
Your tracking list is empty




NASA's NSSDC Master Catalog

Two Line Element Set (TLE):
1 06796U 73058A   21300.46915314 -.00000154  00000-0  00000-0 0  9991
2 06796  11.0859 312.7250 0006424 161.7297  22.4634  0.99144921118856
Source of the keplerian elements: AFSPC